This is the latest recevied weather packets stored in our database for station/object DG1ABU-11. If no packets are shown the sender has not sent any weather packets the latest 10 day(s).
| Time | Temp. | Humidity | Pressure | Rain* | Wind** | Luminosity | Snow |
|---|---|---|---|---|---|---|---|
| 1777582927 | 14.44° C | 32% | 1030.2 hPa | - | - | - | - |
| 1777582027 | 15° C | 31% | 1030.2 hPa | - | - | - | - |
| 1777581126 | 15.56° C | 31% | 1030.3 hPa | - | - | - | - |
| 1777580226 | 16.11° C | 31% | 1030.4 hPa | - | - | - | - |
| 1777579326 | 16.67° C | 30% | 1030.3 hPa | - | - | - | - |
| 1777578426 | 17.22° C | 29% | 1030.3 hPa | - | - | - | - |
| 1777577526 | 17.78° C | 29% | 1030.1 hPa | - | - | - | - |
| 1777576626 | 18.33° C | 28% | 1030.1 hPa | - | - | - | - |
| 1777575726 | 18.89° C | 27% | 1030 hPa | - | - | - | - |
| 1777574826 | 19.44° C | 28% | 1030.1 hPa | - | - | - | - |
| 1777573926 | 20° C | 26% | 1029.9 hPa | - | - | - | - |
| 1777573026 | 20.56° C | 25% | 1029.8 hPa | - | - | - | - |
| 1777572126 | 21.11° C | 25% | 1029.9 hPa | - | - | - | - |
| 1777571226 | 21.67° C | 24% | 1030 hPa | - | - | - | - |
| 1777570326 | 22.22° C | 24% | 1029.9 hPa | - | - | - | - |
| 1777569425 | 22.78° C | 23% | 1030 hPa | - | - | - | - |
| 1777568525 | 22.78° C | 23% | 1030.1 hPa | - | - | - | - |
| 1777567625 | 23.89° C | 22% | 1030.2 hPa | - | - | - | - |
| 1777566725 | 23.89° C | 20% | 1030.3 hPa | - | - | - | - |
| 1777565825 | 24.44° C | 21% | 1030.3 hPa | - | - | - | - |
| 1777564925 | 24.44° C | 20% | 1030.5 hPa | - | - | - | - |
| 1777564025 | 25° C | 21% | 1030.5 hPa | - | - | - | - |
| 1777563125 | 25.56° C | 20% | 1030.6 hPa | - | - | - | - |
| 1777562225 | 25.56° C | 19% | 1030.8 hPa | - | - | - | - |
| 1777561325 | 25.56° C | 19% | 1030.7 hPa | - | - | - | - |
* Rain since midnight (hover to see other rain measurements)
** Current wind speed in m/s (hover to see current wind gust speed)